Time,TemperatureF,DewpointF,PressureIn,WindDirection,WindDirectionDegrees,WindSpeedMPH,WindSpeedGustMPH,Humidity,HourlyPrecipIn,Conditions,Clouds,dailyrainin,SoftwareType,DateUTC
2013-05-31 00:00:00,71.6,64.4,30.44,North,0,0.0,-999.9,78,-99.99,,,-99.99,,2013-05-31 04:00:00,
2013-05-31 00:02:00,71.6,66.2,30.44,North,0,0.0,-999.9,83,-99.99,,,-99.99,,2013-05-31 04:02:00,
2013-05-31 00:04:00,71.6,66.2,30.44,North,0,0.0,-999.9,83,-99.99,,,-99.99,,2013-05-31 04:04:00,
2013-05-31 00:06:00,71.6,66.2,30.44,North,0,0.0,-999.9,83,-99.99,,,-99.99,,2013-05-31 04:06:00,
2013-05-31 00:12:00,71.6,66.2,30.44,North,0,0.0,-999.9,83,-99.99,,,-99.99,,2013-05-31 04:12:00,
2013-05-31 00:16:00,71.6,66.2,30.44,North,0,0.0,-999.9,83,-99.99,,,-99.99,,2013-05-31 04:16:00,
2013-05-31 00:20:00,71.6,66.2,30.44,North,0,0.0,-999.9,83,-99.99,,,-99.99,,2013-05-31 04:20:00,
2013-05-31 00:26:00,71.6,66.2,30.44,North,0,0.0,-999.9,83,-99.99,,,-99.99,,2013-05-31 04:26:00,
2013-05-31 00:32:00,71.6,66.2,30.44,North,0,0.0,-999.9,83,-99.99,,,-99.99,,2013-05-31 04:32:00,
2013-05-31 00:38:00,71.6,66.2,30.44,North,0,0.0,-999.9,83,-99.99,,,-99.99,,2013-05-31 04:38:00,
2013-05-31 00:44:00,69.8,64.4,30.44,North,0,0.0,-999.9,83,-99.99,,,-99.99,,2013-05-31 04:44:00,
2013-05-31 00:50:00,69.8,64.4,30.44,North,0,0.0,-999.9,83,-99.99,,,-99.99,,2013-05-31 04:50:00,
2013-05-31 00:56:00,69.8,64.4,30.45,North,0,0.0,-999.9,83,-99.99,,,-99.99,,2013-05-31 04:56:00,
2013-05-31 01:02:00,69.8,64.4,30.45,North,0,0.0,-999.9,83,-99.99,,,-99.99,,2013-05-31 05:02:00,
2013-05-31 01:08:00,69.8,64.4,30.45,North,0,0.0,-999.9,83,-99.99,,,-99.99,,2013-05-31 05:08:00,
2013-05-31 01:32:00,69.8,66.2,30.45,North,0,0.0,-999.9,88,-99.99,,,-99.99,,2013-05-31 05:32:00,
2013-05-31 01:38:00,69.8,66.2,30.45,North,0,0.0,-999.9,88,-99.99,,,-99.99,,2013-05-31 05:38:00,
2013-05-31 01:52:00,68.0,64.4,30.45,North,0,0.0,-999.9,88,-99.99,,,-99.99,,2013-05-31 05:52:00,
2013-05-31 01:58:00,68.0,64.4,30.45,North,0,0.0,-999.9,88,-99.99,,,-99.99,,2013-05-31 05:58:00,
2013-05-31 02:12:00,68.0,64.4,30.45,North,0,0.0,-999.9,88,-99.99,,,-99.99,,2013-05-31 06:12:00,
2013-05-31 02:18:00,68.0,64.4,30.45,North,0,0.0,-999.9,88,-99.99,,,-99.99,,2013-05-31 06:18:00,
2013-05-31 02:24:00,68.0,64.4,30.45,North,0,0.0,-999.9,88,-99.99,,,-99.99,,2013-05-31 06:24:00,
2013-05-31 02:30:00,68.0,64.4,30.45,North,0,0.0,-999.9,88,-99.99,,,-99.99,,2013-05-31 06:30:00,
2013-05-31 02:36:00,68.0,64.4,30.45,North,0,0.0,-999.9,88,-99.99,,,-99.99,,2013-05-31 06:36:00,
2013-05-31 02:42:00,68.0,66.2,30.45,North,0,0.0,-999.9,94,-99.99,,,-99.99,,2013-05-31 06:42:00,
2013-05-31 02:48:00,68.0,66.2,30.45,North,0,0.0,-999.9,94,-99.99,,,-99.99,,2013-05-31 06:48:00,
2013-05-31 02:54:00,68.0,66.2,30.45,North,0,0.0,-999.9,94,-99.99,,,-99.99,,2013-05-31 06:54:00,
2013-05-31 03:00:00,68.0,66.2,30.45,North,0,0.0,-999.9,94,-99.99,,,-99.99,,2013-05-31 07:00:00,
2013-05-31 03:06:00,68.0,64.4,30.45,North,0,0.0,-999.9,88,-99.99,,,-99.99,,2013-05-31 07:06:00,
2013-05-31 03:22:00,68.0,64.4,30.45,North,0,0.0,-999.9,88,-99.99,,,-99.99,,2013-05-31 07:22:00,
2013-05-31 03:28:00,68.0,64.4,30.45,North,0,0.0,-999.9,88,-99.99,,,-99.99,,2013-05-31 07:28:00,
2013-05-31 03:34:00,66.2,62.6,30.45,North,0,0.0,-999.9,88,-99.99,,,-99.99,,2013-05-31 07:34:00,
2013-05-31 03:40:00,66.2,62.6,30.45,North,0,0.0,-999.9,88,-99.99,,,-99.99,,2013-05-31 07:40:00,
2013-05-31 03:46:00,66.2,64.4,30.45,North,0,0.0,-999.9,94,-99.99,,,-99.99,,2013-05-31 07:46:00,
2013-05-31 03:52:00,66.2,64.4,30.45,North,0,0.0,-999.9,94,-99.99,,,-99.99,,2013-05-31 07:52:00,
2013-05-31 03:58:00,66.2,64.4,30.45,North,0,0.0,-999.9,94,-99.99,,,-99.99,,2013-05-31 07:58:00,
2013-05-31 04:04:00,66.2,64.4,30.45,North,0,0.0,-999.9,94,-99.99,,,-99.99,,2013-05-31 08:04:00,
2013-05-31 04:10:00,66.2,64.4,30.45,North,0,0.0,-999.9,94,-99.99,,,-99.99,,2013-05-31 08:10:00,
2013-05-31 04:16:00,66.2,64.4,30.45,North,0,0.0,-999.9,94,-99.99,,,-99.99,,2013-05-31 08:16:00,
2013-05-31 04:24:00,66.2,64.4,30.45,North,0,0.0,-999.9,94,-99.99,,,-99.99,,2013-05-31 08:24:00,
2013-05-31 04:30:00,66.2,64.4,30.45,North,0,0.0,-999.9,94,-99.99,,,-99.99,,2013-05-31 08:30:00,
2013-05-31 04:36:00,66.2,64.4,30.45,North,0,0.0,-999.9,94,-99.99,,,-99.99,,2013-05-31 08:36:00,
2013-05-31 04:42:00,66.2,64.4,30.45,NE,46,1.2,-999.9,94,-99.99,,,-99.99,,2013-05-31 08:42:00,
2013-05-31 04:48:00,66.2,64.4,30.45,NE,46,1.2,-999.9,94,-99.99,,,-99.99,,2013-05-31 08:48:00,
2013-05-31 04:54:00,64.4,62.6,30.45,NNE,18,0.0,-999.9,94,-99.99,,,-99.99,,2013-05-31 08:54:00,
2013-05-31 05:00:00,64.4,62.6,30.45,NNE,18,0.0,-999.9,94,-99.99,,,-99.99,,2013-05-31 09:00:00,
2013-05-31 05:06:00,66.2,64.4,30.45,North,6,0.0,-999.9,94,-99.99,,,-99.99,,2013-05-31 09:06:00,
2013-05-31 05:12:00,66.2,64.4,30.45,NE,37,0.0,-999.9,94,-99.99,,,-99.99,,2013-05-31 09:12:00,
2013-05-31 05:18:00,66.2,64.4,30.45,NE,37,0.0,-999.9,94,-99.99,,,-99.99,,2013-05-31 09:18:00,
2013-05-31 05:24:00,64.4,62.6,30.45,North,0,0.0,-999.9,94,-99.99,,,-99.99,,2013-05-31 09:24:00,
2013-05-31 05:30:00,64.4,62.6,30.45,North,0,0.0,-999.9,94,-99.99,,,-99.99,,2013-05-31 09:30:00,
2013-05-31 05:36:00,64.4,62.6,30.45,North,0,0.0,-999.9,94,-99.99,,,-99.99,,2013-05-31 09:36:00,
2013-05-31 05:42:00,64.4,62.6,30.45,North,0,0.0,-999.9,94,-99.99,,,-99.99,,2013-05-31 09:42:00,
2013-05-31 05:48:00,64.4,62.6,30.45,North,0,0.0,-999.9,94,-99.99,,,-99.99,,2013-05-31 09:48:00,
2013-05-31 05:54:00,64.4,62.6,30.46,North,0,0.0,-999.9,94,-99.99,,,-99.99,,2013-05-31 09:54:00,
2013-05-31 06:00:00,64.4,62.6,30.46,North,0,0.0,-999.9,94,-99.99,,,-99.99,,2013-05-31 10:00:00,
2013-05-31 06:06:00,64.4,62.6,30.46,North,0,0.0,-999.9,94,-99.99,,,-99.99,,2013-05-31 10:06:00,
2013-05-31 06:12:00,64.4,62.6,30.46,North,0,0.0,-999.9,94,-99.99,,,-99.99,,2013-05-31 10:12:00,
2013-05-31 06:18:00,64.4,62.6,30.46,North,0,0.0,-999.9,94,-99.99,,,-99.99,,2013-05-31 10:18:00,
2013-05-31 06:32:00,66.2,64.4,30.47,North,0,0.0,-999.9,94,-99.99,,,-99.99,,2013-05-31 10:32:00,
2013-05-31 06:38:00,66.2,64.4,30.47,North,0,0.0,-999.9,94,-99.99,,,-99.99,,2013-05-31 10:38:00,
2013-05-31 06:44:00,68.0,66.2,30.47,North,0,0.0,-999.9,94,-99.99,,,-99.99,,2013-05-31 10:44:00,
2013-05-31 06:50:00,68.0,66.2,30.47,North,0,0.0,-999.9,94,-99.99,,,-99.99,,2013-05-31 10:50:00,
2013-05-31 06:56:00,68.0,64.4,30.47,NE,47,1.2,-999.9,88,-99.99,,,-99.99,,2013-05-31 10:56:00,
2013-05-31 07:02:00,69.8,66.2,30.47,North,0,0.0,-999.9,88,-99.99,,,-99.99,,2013-05-31 11:02:00,
2013-05-31 07:08:00,69.8,66.2,30.47,North,0,0.0,-999.9,88,-99.99,,,-99.99,,2013-05-31 11:08:00,
2013-05-31 07:14:00,71.6,66.2,30.47,North,0,0.0,-999.9,83,-99.99,,,-99.99,,2013-05-31 11:14:00,
2013-05-31 07:20:00,71.6,66.2,30.47,North,0,0.0,-999.9,83,-99.99,,,-99.99,,2013-05-31 11:20:00,
2013-05-31 07:26:00,71.6,66.2,30.47,North,0,0.0,-999.9,83,-99.99,,,-99.99,,2013-05-31 11:26:00,
2013-05-31 07:32:00,73.4,66.2,30.47,North,0,0.0,-999.9,78,-99.99,,,-99.99,,2013-05-31 11:32:00,
2013-05-31 07:38:00,73.4,66.2,30.47,North,0,0.0,-999.9,78,-99.99,,,-99.99,,2013-05-31 11:38:00,
2013-05-31 07:44:00,75.2,68.0,30.46,North,0,0.0,-999.9,78,-99.99,,,-99.99,,2013-05-31 11:44:00,
2013-05-31 07:50:00,75.2,68.0,30.46,North,0,0.0,-999.9,78,-99.99,,,-99.99,,2013-05-31 11:50:00,
2013-05-31 07:56:00,75.2,66.2,30.46,North,0,0.0,-999.9,73,-99.99,,,-99.99,,2013-05-31 11:56:00,
2013-05-31 08:02:00,77.0,66.2,30.46,North,0,0.0,-999.9,69,-99.99,,,-99.99,,2013-05-31 12:02:00,
2013-05-31 08:08:00,77.0,66.2,30.46,North,0,0.0,-999.9,69,-99.99,,,-99.99,,2013-05-31 12:08:00,
2013-05-31 08:14:00,77.0,66.2,30.46,ENE,66,1.2,-999.9,69,-99.99,,,-99.99,,2013-05-31 12:14:00,
2013-05-31 08:20:00,77.0,66.2,30.46,ENE,66,1.2,-999.9,69,-99.99,,,-99.99,,2013-05-31 12:20:00,
2013-05-31 08:26:00,77.0,66.2,30.46,SSE,152,1.2,-999.9,69,-99.99,,,-99.99,,2013-05-31 12:26:00,
2013-05-31 08:32:00,78.8,66.2,30.45,North,0,0.0,-999.9,65,-99.99,,,-99.99,,2013-05-31 12:32:00,
2013-05-31 08:38:00,78.8,66.2,30.45,North,0,0.0,-999.9,65,-99.99,,,-99.99,,2013-05-31 12:38:00,
2013-05-31 08:44:00,80.6,68.0,30.45,North,0,0.0,-999.9,65,-99.99,,,-99.99,,2013-05-31 12:44:00,
2013-05-31 08:50:00,80.6,68.0,30.45,North,0,0.0,-999.9,65,-99.99,,,-99.99,,2013-05-31 12:50:00,
2013-05-31 08:56:00,82.4,68.0,30.45,North,0,0.0,-999.9,62,-99.99,,,-99.99,,2013-05-31 12:56:00,
2013-05-31 09:02:00,82.4,68.0,30.45,SE,124,0.0,-999.9,62,-99.99,,,-99.99,,2013-05-31 13:02:00,
2013-05-31 09:08:00,82.4,68.0,30.45,SE,124,0.0,-999.9,62,-99.99,,,-99.99,,2013-05-31 13:08:00,
2013-05-31 09:14:00,82.4,66.2,30.44,SE,141,3.5,-999.9,58,-99.99,,,-99.99,,2013-05-31 13:14:00,
2013-05-31 09:20:00,82.4,66.2,30.44,SE,141,3.5,-999.9,58,-99.99,,,-99.99,,2013-05-31 13:20:00,
2013-05-31 09:26:00,84.2,68.0,30.44,East,101,2.3,-999.9,58,-99.99,,,-99.99,,2013-05-31 13:26:00,
2013-05-31 09:32:00,86.0,68.0,30.43,SE,143,0.0,-999.9,55,-99.99,,,-99.99,,2013-05-31 13:32:00,
2013-05-31 09:38:00,86.0,68.0,30.43,SE,143,0.0,-999.9,55,-99.99,,,-99.99,,2013-05-31 13:38:00,
2013-05-31 09:44:00,86.0,69.8,30.43,SE,146,2.3,-999.9,58,-99.99,,,-99.99,,2013-05-31 13:44:00,
2013-05-31 09:50:00,86.0,69.8,30.43,SE,146,2.3,-999.9,58,-99.99,,,-99.99,,2013-05-31 13:50:00,
2013-05-31 09:56:00,86.0,69.8,30.43,SE,134,0.0,-999.9,58,-99.99,,,-99.99,,2013-05-31 13:56:00,
2013-05-31 10:02:00,86.0,68.0,30.42,East,100,0.0,-999.9,55,-99.99,,,-99.99,,2013-05-31 14:02:00,
2013-05-31 10:08:00,86.0,68.0,30.42,East,100,0.0,-999.9,55,-99.99,,,-99.99,,2013-05-31 14:08:00,
2013-05-31 10:14:00,87.8,69.8,30.42,ESE,112,2.3,-999.9,55,-99.99,,,-99.99,,2013-05-31 14:14:00,
2013-05-31 10:20:00,87.8,69.8,30.42,ESE,112,2.3,-999.9,55,-99.99,,,-99.99,,2013-05-31 14:20:00,
2013-05-31 10:26:00,87.8,69.8,30.42,ESE,110,1.2,-999.9,55,-99.99,,,-99.99,,2013-05-31 14:26:00,
2013-05-31 10:32:00,87.8,69.8,30.42,East,93,0.0,-999.9,55,-99.99,,,-99.99,,2013-05-31 14:32:00,
2013-05-31 10:38:00,87.8,69.8,30.42,East,93,0.0,-999.9,55,-99.99,,,-99.99,,2013-05-31 14:38:00,
2013-05-31 10:44:00,87.8,68.0,30.41,SE,131,2.3,-999.9,52,-99.99,,,-99.99,,2013-05-31 14:44:00,
2013-05-31 10:50:00,87.8,68.0,30.41,SE,131,2.3,-999.9,52,-99.99,,,-99.99,,2013-05-31 14:50:00,
2013-05-31 10:56:00,89.6,68.0,30.41,ESE,119,0.0,-999.9,49,-99.99,,,-99.99,,2013-05-31 14:56:00,
2013-05-31 11:02:00,89.6,66.2,30.41,North,0,0.0,-999.9,46,-99.99,,,-99.99,,2013-05-31 15:02:00,
2013-05-31 11:08:00,89.6,66.2,30.41,North,0,0.0,-999.9,46,-99.99,,,-99.99,,2013-05-31 15:08:00,
2013-05-31 11:14:00,91.4,68.0,30.40,North,0,0.0,-999.9,46,-99.99,,,-99.99,,2013-05-31 15:14:00,
2013-05-31 11:20:00,91.4,68.0,30.40,North,0,0.0,-999.9,46,-99.99,,,-99.99,,2013-05-31 15:20:00,
2013-05-31 11:26:00,91.4,69.8,30.40,SSE,151,8.1,-999.9,49,-99.99,,,-99.99,,2013-05-31 15:26:00,
2013-05-31 11:32:00,91.4,69.8,30.40,SW,228,0.0,-999.9,49,-99.99,,,-99.99,,2013-05-31 15:32:00,
2013-05-31 11:38:00,91.4,69.8,30.40,SW,228,0.0,-999.9,49,-99.99,,,-99.99,,2013-05-31 15:38:00,
2013-05-31 11:44:00,91.4,68.0,30.40,SSE,152,5.8,-999.9,46,-99.99,,,-99.99,,2013-05-31 15:44:00,
2013-05-31 11:50:00,91.4,68.0,30.40,SSE,152,5.8,-999.9,46,-99.99,,,-99.99,,2013-05-31 15:50:00,
2013-05-31 11:56:00,91.4,68.0,30.40,SSE,156,3.5,-999.9,46,-99.99,,,-99.99,,2013-05-31 15:56:00,
2013-05-31 12:02:00,93.2,68.0,30.39,SW,227,1.2,-999.9,44,-99.99,,,-99.99,,2013-05-31 16:02:00,
2013-05-31 12:08:00,93.2,68.0,30.39,SW,227,1.2,-999.9,44,-99.99,,,-99.99,,2013-05-31 16:08:00,
2013-05-31 12:14:00,91.4,68.0,30.39,SE,140,4.6,-999.9,46,-99.99,,,-99.99,,2013-05-31 16:14:00,
2013-05-31 12:20:00,91.4,68.0,30.39,SE,140,4.6,-999.9,46,-99.99,,,-99.99,,2013-05-31 16:20:00,
2013-05-31 12:26:00,91.4,66.2,30.39,SSE,165,5.8,-999.9,43,-99.99,,,-99.99,,2013-05-31 16:26:00,
2013-05-31 12:32:00,93.2,66.2,30.39,SSE,160,9.2,-999.9,41,-99.99,,,-99.99,,2013-05-31 16:32:00,
2013-05-31 12:38:00,93.2,66.2,30.39,SSE,160,9.2,-999.9,41,-99.99,,,-99.99,,2013-05-31 16:38:00,
2013-05-31 12:44:00,93.2,66.2,30.39,South,183,2.3,-999.9,41,-99.99,,,-99.99,,2013-05-31 16:44:00,
2013-05-31 12:50:00,93.2,66.2,30.39,South,183,2.3,-999.9,41,-99.99,,,-99.99,,2013-05-31 16:50:00,
2013-05-31 12:56:00,93.2,66.2,30.38,SSE,155,3.5,-999.9,41,-99.99,,,-99.99,,2013-05-31 16:56:00,
2013-05-31 13:02:00,93.2,64.4,30.38,WSW,252,0.0,-999.9,38,-99.99,,,-99.99,,2013-05-31 17:02:00,
2013-05-31 13:08:00,93.2,64.4,30.38,WSW,252,0.0,-999.9,38,-99.99,,,-99.99,,2013-05-31 17:08:00,
2013-05-31 13:14:00,93.2,64.4,30.38,South,176,2.3,-999.9,38,-99.99,,,-99.99,,2013-05-31 17:14:00,
2013-05-31 13:20:00,93.2,64.4,30.38,South,176,2.3,-999.9,38,-99.99,,,-99.99,,2013-05-31 17:20:00,
2013-05-31 13:26:00,93.2,64.4,30.38,SSE,149,8.1,-999.9,38,-99.99,,,-99.99,,2013-05-31 17:26:00,
2013-05-31 13:32:00,95.0,62.6,30.37,SE,140,8.1,-999.9,34,-99.99,,,-99.99,,2013-05-31 17:32:00,
2013-05-31 13:38:00,95.0,62.6,30.37,SE,140,8.1,-999.9,34,-99.99,,,-99.99,,2013-05-31 17:38:00,
2013-05-31 13:44:00,93.2,60.8,30.37,SE,141,6.9,-999.9,34,-99.99,,,-99.99,,2013-05-31 17:44:00,
2013-05-31 13:50:00,93.2,60.8,30.37,SE,141,6.9,-999.9,34,-99.99,,,-99.99,,2013-05-31 17:50:00,
2013-05-31 13:56:00,95.0,64.4,30.37,South,185,1.2,-999.9,36,-99.99,,,-99.99,,2013-05-31 17:56:00,
2013-05-31 14:02:00,93.2,62.6,30.36,SSE,166,1.2,-999.9,36,-99.99,,,-99.99,,2013-05-31 18:02:00,
2013-05-31 14:08:00,93.2,62.6,30.36,SSE,166,1.2,-999.9,36,-99.99,,,-99.99,,2013-05-31 18:08:00,
2013-05-31 14:14:00,95.0,64.4,30.36,SE,146,8.1,-999.9,36,-99.99,,,-99.99,,2013-05-31 18:14:00,
2013-05-31 14:20:00,95.0,64.4,30.36,SE,146,8.1,-999.9,36,-99.99,,,-99.99,,2013-05-31 18:20:00,
2013-05-31 14:26:00,93.2,64.4,30.36,SSE,157,3.5,-999.9,38,-99.99,,,-99.99,,2013-05-31 18:26:00,
2013-05-31 14:32:00,93.2,66.2,30.36,North,0,0.0,-999.9,41,-99.99,,,-99.99,,2013-05-31 18:32:00,
2013-05-31 14:38:00,93.2,66.2,30.36,North,0,0.0,-999.9,41,-99.99,,,-99.99,,2013-05-31 18:38:00,
2013-05-31 14:44:00,93.2,60.8,30.36,SE,142,5.8,-999.9,34,-99.99,,,-99.99,,2013-05-31 18:44:00,
2013-05-31 14:50:00,93.2,60.8,30.36,SE,142,5.8,-999.9,34,-99.99,,,-99.99,,2013-05-31 18:50:00,
2013-05-31 14:56:00,93.2,59.0,30.35,South,184,3.5,-999.9,32,-99.99,,,-99.99,,2013-05-31 18:56:00,
2013-05-31 15:02:00,95.0,60.8,30.35,SW,217,1.2,-999.9,32,-99.99,,,-99.99,,2013-05-31 19:02:00,
2013-05-31 15:08:00,95.0,60.8,30.35,SW,217,1.2,-999.9,32,-99.99,,,-99.99,,2013-05-31 19:08:00,
2013-05-31 15:14:00,93.2,60.8,30.35,SSE,161,6.9,-999.9,34,-99.99,,,-99.99,,2013-05-31 19:14:00,
2013-05-31 15:20:00,93.2,60.8,30.35,SSE,161,6.9,-999.9,34,-99.99,,,-99.99,,2013-05-31 19:20:00,
2013-05-31 15:32:00,91.4,62.6,30.35,South,188,1.2,-999.9,38,-99.99,,,-99.99,,2013-05-31 19:32:00,
2013-05-31 15:38:00,91.4,62.6,30.35,South,188,1.2,-999.9,38,-99.99,,,-99.99,,2013-05-31 19:38:00,
2013-05-31 15:44:00,91.4,60.8,30.35,SSE,159,2.3,-999.9,36,-99.99,,,-99.99,,2013-05-31 19:44:00,
2013-05-31 15:50:00,91.4,60.8,30.35,SSE,159,2.3,-999.9,36,-99.99,,,-99.99,,2013-05-31 19:50:00,
2013-05-31 15:56:00,93.2,60.8,30.34,SSW,192,2.3,-999.9,34,-99.99,,,-99.99,,2013-05-31 19:56:00,
2013-05-31 16:02:00,93.2,60.8,30.34,SSE,155,3.5,-999.9,34,-99.99,,,-99.99,,2013-05-31 20:02:00,
2013-05-31 16:08:00,93.2,60.8,30.34,SSE,155,3.5,-999.9,34,-99.99,,,-99.99,,2013-05-31 20:08:00,
2013-05-31 16:14:00,93.2,62.6,30.34,South,189,2.3,-999.9,36,-99.99,,,-99.99,,2013-05-31 20:14:00,
2013-05-31 16:20:00,93.2,62.6,30.34,South,189,2.3,-999.9,36,-99.99,,,-99.99,,2013-05-31 20:20:00,
2013-05-31 16:26:00,93.2,62.6,30.33,North,0,0.0,-999.9,36,-99.99,,,-99.99,,2013-05-31 20:26:00,
2013-05-31 16:32:00,91.4,60.8,30.34,South,175,2.3,-999.9,36,-99.99,,,-99.99,,2013-05-31 20:32:00,
2013-05-31 16:38:00,91.4,60.8,30.34,South,175,2.3,-999.9,36,-99.99,,,-99.99,,2013-05-31 20:38:00,
2013-05-31 16:44:00,91.4,60.8,30.33,SSE,154,2.3,-999.9,36,-99.99,,,-99.99,,2013-05-31 20:44:00,
2013-05-31 16:50:00,91.4,60.8,30.33,SSE,154,2.3,-999.9,36,-99.99,,,-99.99,,2013-05-31 20:50:00,
2013-05-31 16:56:00,91.4,60.8,30.33,SSW,207,0.0,-999.9,36,-99.99,,,-99.99,,2013-05-31 20:56:00,
2013-05-31 17:02:00,91.4,60.8,30.33,ESE,112,3.5,-999.9,36,-99.99,,,-99.99,,2013-05-31 21:02:00,
2013-05-31 17:08:00,91.4,60.8,30.33,ESE,112,3.5,-999.9,36,-99.99,,,-99.99,,2013-05-31 21:08:00,
2013-05-31 17:14:00,91.4,60.8,30.33,ENE,77,1.2,-999.9,36,-99.99,,,-99.99,,2013-05-31 21:14:00,
2013-05-31 17:20:00,91.4,60.8,30.33,ENE,77,1.2,-999.9,36,-99.99,,,-99.99,,2013-05-31 21:20:00,
2013-05-31 17:26:00,91.4,62.6,30.33,South,177,2.3,-999.9,38,-99.99,,,-99.99,,2013-05-31 21:26:00,
2013-05-31 17:32:00,89.6,62.6,30.33,SE,144,5.8,-999.9,40,-99.99,,,-99.99,,2013-05-31 21:32:00,
2013-05-31 17:38:00,89.6,62.6,30.33,SE,144,5.8,-999.9,40,-99.99,,,-99.99,,2013-05-31 21:38:00,
2013-05-31 17:44:00,89.6,62.6,30.33,South,190,1.2,-999.9,40,-99.99,,,-99.99,,2013-05-31 21:44:00,
2013-05-31 17:50:00,89.6,62.6,30.33,South,190,1.2,-999.9,40,-99.99,,,-99.99,,2013-05-31 21:50:00,
2013-05-31 17:56:00,87.8,62.6,30.33,SSE,157,1.2,-999.9,43,-99.99,,,-99.99,,2013-05-31 21:56:00,
2013-05-31 18:02:00,87.8,62.6,30.33,North,0,0.0,-999.9,43,-99.99,,,-99.99,,2013-05-31 22:02:00,
2013-05-31 18:08:00,87.8,62.6,30.33,North,0,0.0,-999.9,43,-99.99,,,-99.99,,2013-05-31 22:08:00,
2013-05-31 18:14:00,87.8,59.0,30.33,South,174,1.2,-999.9,38,-99.99,,,-99.99,,2013-05-31 22:14:00,
2013-05-31 18:20:00,87.8,59.0,30.33,South,174,1.2,-999.9,38,-99.99,,,-99.99,,2013-05-31 22:20:00,
2013-05-31 18:26:00,89.6,60.8,30.32,SSE,150,5.8,-999.9,38,-99.99,,,-99.99,,2013-05-31 22:26:00,
2013-05-31 18:32:00,89.6,60.8,30.32,North,0,0.0,-999.9,38,-99.99,,,-99.99,,2013-05-31 22:32:00,
2013-05-31 18:38:00,89.6,60.8,30.32,North,0,0.0,-999.9,38,-99.99,,,-99.99,,2013-05-31 22:38:00,
2013-05-31 18:44:00,87.8,59.0,30.32,SW,217,0.0,-999.9,38,-99.99,,,-99.99,,2013-05-31 22:44:00,
2013-05-31 18:50:00,87.8,59.0,30.32,SW,217,0.0,-999.9,38,-99.99,,,-99.99,,2013-05-31 22:50:00,
2013-05-31 18:56:00,87.8,59.0,30.32,North,0,0.0,-999.9,38,-99.99,,,-99.99,,2013-05-31 22:56:00,
2013-05-31 19:02:00,87.8,59.0,30.32,North,0,0.0,-999.9,38,-99.99,,,-99.99,,2013-05-31 23:02:00,
2013-05-31 19:08:00,87.8,59.0,30.32,North,0,0.0,-999.9,38,-99.99,,,-99.99,,2013-05-31 23:08:00,
2013-05-31 19:14:00,87.8,59.0,30.32,South,185,1.2,-999.9,38,-99.99,,,-99.99,,2013-05-31 23:14:00,
2013-05-31 19:20:00,87.8,59.0,30.32,South,185,1.2,-999.9,38,-99.99,,,-99.99,,2013-05-31 23:20:00,
2013-05-31 19:26:00,86.0,59.0,30.31,North,0,0.0,-999.9,40,-99.99,,,-99.99,,2013-05-31 23:26:00,
2013-05-31 19:32:00,86.0,57.2,30.31,SSE,164,1.2,-999.9,37,-99.99,,,-99.99,,2013-05-31 23:32:00,
2013-05-31 19:38:00,86.0,57.2,30.31,SSE,164,1.2,-999.9,37,-99.99,,,-99.99,,2013-05-31 23:38:00,
2013-05-31 19:44:00,86.0,59.0,30.31,North,0,0.0,-999.9,40,-99.99,,,-99.99,,2013-05-31 23:44:00,
2013-05-31 19:50:00,86.0,59.0,30.31,North,0,0.0,-999.9,40,-99.99,,,-99.99,,2013-05-31 23:50:00,
2013-05-31 19:56:00,86.0,59.0,30.32,North,0,0.0,-999.9,40,-99.99,,,-99.99,,2013-05-31 23:56:00,
2013-05-31 20:02:00,84.2,57.2,30.32,North,0,0.0,-999.9,40,-99.99,,,-99.99,,2013-06-01 00:02:00,
2013-05-31 20:08:00,84.2,57.2,30.32,North,0,0.0,-999.9,40,-99.99,,,-99.99,,2013-06-01 00:08:00,
2013-05-31 20:14:00,84.2,59.0,30.32,South,178,1.2,-999.9,42,-99.99,,,-99.99,,2013-06-01 00:14:00,
2013-05-31 20:20:00,84.2,59.0,30.32,South,178,1.2,-999.9,42,-99.99,,,-99.99,,2013-06-01 00:20:00,
2013-05-31 21:12:00,80.6,62.6,30.33,North,0,0.0,-999.9,54,-99.99,,,-99.99,,2013-06-01 01:12:00,
2013-05-31 21:18:00,80.6,62.6,30.33,North,0,0.0,-999.9,54,-99.99,,,-99.99,,2013-06-01 01:18:00,
2013-05-31 21:24:00,78.8,64.4,30.34,North,0,0.0,-999.9,61,-99.99,,,-99.99,,2013-06-01 01:24:00,
2013-05-31 21:30:00,78.8,64.4,30.34,North,0,0.0,-999.9,61,-99.99,,,-99.99,,2013-06-01 01:30:00,
2013-05-31 21:36:00,77.0,64.4,30.34,North,0,0.0,-999.9,65,-99.99,,,-99.99,,2013-06-01 01:36:00,
2013-05-31 21:42:00,75.2,64.4,30.35,North,0,0.0,-999.9,69,-99.99,,,-99.99,,2013-06-01 01:42:00,
2013-05-31 21:48:00,75.2,64.4,30.35,North,0,0.0,-999.9,69,-99.99,,,-99.99,,2013-06-01 01:48:00,
2013-05-31 21:54:00,75.2,64.4,30.35,North,0,0.0,-999.9,69,-99.99,,,-99.99,,2013-06-01 01:54:00,
2013-05-31 22:00:00,75.2,64.4,30.35,North,0,0.0,-999.9,69,-99.99,,,-99.99,,2013-06-01 02:00:00,
2013-05-31 22:06:00,75.2,64.4,30.36,North,0,0.0,-999.9,69,-99.99,,,-99.99,,2013-06-01 02:06:00,
2013-05-31 22:12:00,73.4,62.6,30.36,North,0,0.0,-999.9,69,-99.99,,,-99.99,,2013-06-01 02:12:00,
2013-05-31 22:18:00,73.4,62.6,30.36,North,0,0.0,-999.9,69,-99.99,,,-99.99,,2013-06-01 02:18:00,
2013-05-31 22:24:00,73.4,64.4,30.36,North,0,0.0,-999.9,73,-99.99,,,-99.99,,2013-06-01 02:24:00,
2013-05-31 22:30:00,73.4,64.4,30.36,North,0,0.0,-999.9,73,-99.99,,,-99.99,,2013-06-01 02:30:00,
2013-05-31 22:36:00,73.4,64.4,30.37,North,0,0.0,-999.9,73,-99.99,,,-99.99,,2013-06-01 02:36:00,
2013-05-31 22:42:00,71.6,62.6,30.37,North,0,0.0,-999.9,73,-99.99,,,-99.99,,2013-06-01 02:42:00,
2013-05-31 22:48:00,71.6,62.6,30.37,North,0,0.0,-999.9,73,-99.99,,,-99.99,,2013-06-01 02:48:00,
2013-05-31 22:54:00,71.6,62.6,30.37,North,0,0.0,-999.9,73,-99.99,,,-99.99,,2013-06-01 02:54:00,
2013-05-31 23:00:00,71.6,62.6,30.37,North,0,0.0,-999.9,73,-99.99,,,-99.99,,2013-06-01 03:00:00,
2013-05-31 23:06:00,71.6,62.6,30.37,North,0,0.0,-999.9,73,-99.99,,,-99.99,,2013-06-01 03:06:00,
2013-05-31 23:12:00,71.6,64.4,30.37,North,0,0.0,-999.9,78,-99.99,,,-99.99,,2013-06-01 03:12:00,
2013-05-31 23:18:00,71.6,64.4,30.37,North,0,0.0,-999.9,78,-99.99,,,-99.99,,2013-06-01 03:18:00,
2013-05-31 23:24:00,71.6,64.4,30.37,North,0,0.0,-999.9,78,-99.99,,,-99.99,,2013-06-01 03:24:00,
2013-05-31 23:30:00,71.6,64.4,30.37,North,0,0.0,-999.9,78,-99.99,,,-99.99,,2013-06-01 03:30:00,
2013-05-31 23:36:00,71.6,64.4,30.37,North,0,0.0,-999.9,78,-99.99,,,-99.99,,2013-06-01 03:36:00,
2013-05-31 23:42:00,69.8,62.6,30.37,North,0,0.0,-999.9,78,-99.99,,,-99.99,,2013-06-01 03:42:00,
2013-05-31 23:48:00,69.8,62.6,30.37,North,0,0.0,-999.9,78,-99.99,,,-99.99,,2013-06-01 03:48:00,
2013-05-31 23:54:00,69.8,62.6,30.37,North,0,0.0,-999.9,78,-99.99,,,-99.99,,2013-06-01 03:54:00,